Time,TemperatureF,DewpointF,PressureIn,WindDirection,WindDirectionDegrees,WindSpeedMPH,WindSpeedGustMPH,Humidity,HourlyPrecipIn,Conditions,Clouds,dailyrainin,SoftwareType,DateUTC
2013-03-18 01:33:00,46.5,45.1,30.02,N/A,-737280,0.0,-999.0,95,0.00,,,0.00,Wunderground v.1.15,2013-03-18 08:33:00,
2013-03-18 01:38:00,46.5,45.1,30.02,N/A,-737280,0.0,-999.0,95,0.00,,,0.00,Wunderground v.1.15,2013-03-18 08:38:00,
2013-03-18 01:43:00,46.5,45.1,30.02,N/A,-737280,0.0,-999.0,95,0.00,,,0.00,Wunderground v.1.15,2013-03-18 08:43:00,
2013-03-18 01:48:00,46.6,45.2,30.01,N/A,-737280,0.0,-999.0,95,0.00,,,0.00,Wunderground v.1.15,2013-03-18 08:48:00,
2013-03-18 01:53:00,46.6,45.2,30.01,N/A,-737280,0.0,-999.0,95,0.00,,,0.00,Wunderground v.1.15,2013-03-18 08:53:00,
2013-03-18 01:58:00,46.6,45.2,30.01,N/A,-737280,0.0,-999.0,95,0.00,,,0.00,Wunderground v.1.15,2013-03-18 08:58:00,
2013-03-18 02:03:00,46.6,45.2,30.01,N/A,-737280,0.0,-999.0,95,0.00,,,0.00,Wunderground v.1.15,2013-03-18 09:03:00,
2013-03-18 02:08:00,46.6,45.2,30.01,N/A,-737280,0.0,-999.0,95,0.00,,,0.00,Wunderground v.1.15,2013-03-18 09:08:00,
2013-03-18 02:13:00,46.6,45.2,30.01,N/A,-737280,0.0,-999.0,95,0.00,,,0.00,Wunderground v.1.15,2013-03-18 09:13:00,
2013-03-18 02:18:00,46.8,46.0,30.02,N/A,-737280,0.0,-999.0,97,0.00,,,0.00,Wunderground v.1.15,2013-03-18 09:18:00,
2013-03-18 02:23:00,46.8,46.0,30.02,N/A,-737280,0.0,-999.0,97,0.00,,,0.00,Wunderground v.1.15,2013-03-18 09:23:00,
2013-03-18 02:28:00,46.8,46.0,30.02,N/A,-737280,0.0,-999.0,97,0.00,,,0.00,Wunderground v.1.15,2013-03-18 09:28:00,
2013-03-18 02:33:00,46.8,46.0,30.02,N/A,-737280,0.0,-999.0,97,0.00,,,0.00,Wunderground v.1.15,2013-03-18 09:33:00,
2013-03-18 02:38:00,46.8,46.0,30.02,N/A,-737280,0.0,-999.0,97,0.00,,,0.00,Wunderground v.1.15,2013-03-18 09:38:00,
2013-03-18 02:43:00,46.8,46.0,30.02,N/A,-737280,0.0,-999.0,97,0.00,,,0.00,Wunderground v.1.15,2013-03-18 09:43:00,
2013-03-18 02:48:00,46.3,44.9,30.02,N/A,-737280,0.0,-999.0,95,0.00,,,0.00,Wunderground v.1.15,2013-03-18 09:48:00,
2013-03-18 02:53:00,46.3,44.9,30.02,N/A,-737280,0.0,-999.0,95,0.00,,,0.00,Wunderground v.1.15,2013-03-18 09:53:00,
2013-03-18 02:58:00,46.3,44.9,30.02,N/A,-737280,0.0,-999.0,95,0.00,,,0.00,Wunderground v.1.15,2013-03-18 09:58:00,
2013-03-18 03:03:00,46.3,44.9,30.02,N/A,-737280,0.0,-999.0,95,0.00,,,0.00,Wunderground v.1.15,2013-03-18 10:03:00,
2013-03-18 03:08:00,46.3,44.9,30.02,N/A,-737280,0.0,-999.0,95,0.00,,,0.00,Wunderground v.1.15,2013-03-18 10:08:00,
2013-03-18 03:13:00,46.3,44.9,30.02,N/A,-737280,0.0,-999.0,95,0.00,,,0.00,Wunderground v.1.15,2013-03-18 10:13:00,
2013-03-18 03:18:00,46.7,45.6,30.01,N/A,-737280,0.0,-999.0,96,0.00,,,0.00,Wunderground v.1.15,2013-03-18 10:18:00,
2013-03-18 03:23:00,46.7,45.6,30.01,N/A,-737280,0.0,-999.0,96,0.00,,,0.00,Wunderground v.1.15,2013-03-18 10:23:00,
2013-03-18 03:28:00,46.7,45.6,30.01,N/A,-737280,0.0,-999.0,96,0.00,,,0.00,Wunderground v.1.15,2013-03-18 10:28:00,
2013-03-18 03:33:00,46.7,45.6,30.01,N/A,-737280,0.0,-999.0,96,0.00,,,0.00,Wunderground v.1.15,2013-03-18 10:33:00,
2013-03-18 03:38:00,46.7,45.6,30.01,N/A,-737280,0.0,-999.0,96,0.00,,,0.00,Wunderground v.1.15,2013-03-18 10:38:00,
2013-03-18 03:43:00,46.7,45.6,30.01,N/A,-737280,0.0,-999.0,96,0.00,,,0.00,Wunderground v.1.15,2013-03-18 10:43:00,
2013-03-18 03:48:00,44.9,43.8,30.01,N/A,-737280,0.0,-999.0,96,0.00,,,0.00,Wunderground v.1.15,2013-03-18 10:48:00,
2013-03-18 03:53:00,44.9,43.8,30.01,N/A,-737280,0.0,-999.0,96,0.00,,,0.00,Wunderground v.1.15,2013-03-18 10:53:00,
2013-03-18 03:58:00,44.9,43.8,30.01,N/A,-737280,0.0,-999.0,96,0.00,,,0.00,Wunderground v.1.15,2013-03-18 10:58:00,
2013-03-18 04:03:00,44.9,43.8,30.01,N/A,-737280,0.0,-999.0,96,0.00,,,0.00,Wunderground v.1.15,2013-03-18 11:03:00,
2013-03-18 04:08:00,44.9,43.8,30.01,N/A,-737280,0.0,-999.0,96,0.00,,,0.00,Wunderground v.1.15,2013-03-18 11:08:00,
2013-03-18 04:13:00,44.9,43.8,30.01,N/A,-737280,0.0,-999.0,96,0.00,,,0.00,Wunderground v.1.15,2013-03-18 11:13:00,
2013-03-18 04:18:00,44.1,43.0,30.00,N/A,-737280,0.0,-999.0,96,0.00,,,0.00,Wunderground v.1.15,2013-03-18 11:18:00,
2013-03-18 04:23:00,44.1,43.0,30.00,N/A,-737280,0.0,-999.0,96,0.00,,,0.00,Wunderground v.1.15,2013-03-18 11:23:00,
2013-03-18 04:28:00,44.1,43.0,30.00,N/A,-737280,0.0,-999.0,96,0.00,,,0.00,Wunderground v.1.15,2013-03-18 11:28:00,
2013-03-18 04:33:00,44.1,43.0,30.00,N/A,-737280,0.0,-999.0,96,0.00,,,0.00,Wunderground v.1.15,2013-03-18 11:33:00,
2013-03-18 04:38:00,44.1,43.0,30.00,N/A,-737280,0.0,-999.0,96,0.00,,,0.00,Wunderground v.1.15,2013-03-18 11:38:00,
2013-03-18 04:43:00,44.1,43.0,30.00,N/A,-737280,0.0,-999.0,96,0.00,,,0.00,Wunderground v.1.15,2013-03-18 11:43:00,
2013-03-18 04:48:00,43.8,43.0,30.01,N/A,-737280,0.0,-999.0,97,0.00,,,0.00,Wunderground v.1.15,2013-03-18 11:48:00,
2013-03-18 04:53:00,43.8,43.0,30.01,N/A,-737280,0.0,-999.0,97,0.00,,,0.00,Wunderground v.1.15,2013-03-18 11:53:00,
2013-03-18 04:58:00,43.8,43.0,30.01,N/A,-737280,0.0,-999.0,97,0.00,,,0.00,Wunderground v.1.15,2013-03-18 11:58:00,
2013-03-18 05:03:00,43.8,43.0,30.01,N/A,-737280,0.0,-999.0,97,0.00,,,0.00,Wunderground v.1.15,2013-03-18 12:03:00,
2013-03-18 05:08:00,43.8,43.0,30.01,N/A,-737280,0.0,-999.0,97,0.00,,,0.00,Wunderground v.1.15,2013-03-18 12:08:00,
2013-03-18 05:13:00,43.8,43.0,30.01,N/A,-737280,0.0,-999.0,97,0.00,,,0.00,Wunderground v.1.15,2013-03-18 12:13:00,
2013-03-18 05:18:00,43.8,42.7,30.03,N/A,-737280,0.0,-999.0,96,0.00,,,0.00,Wunderground v.1.15,2013-03-18 12:18:00,
2013-03-18 05:23:00,43.8,42.7,30.03,N/A,-737280,0.0,-999.0,96,0.00,,,0.00,Wunderground v.1.15,2013-03-18 12:23:00,
2013-03-18 05:33:00,43.8,42.7,30.03,N/A,-737280,0.0,-999.0,96,0.00,,,0.00,Wunderground v.1.15,2013-03-18 12:33:00,
2013-03-18 05:40:00,43.9,43.1,30.02,WSW,253,0.0,7.0,97,0.00,,,0.00,Wunderground v.1.15,2013-03-18 12:40:00,
2013-03-18 05:46:00,44.0,43.2,30.02,WSW,253,0.0,7.0,97,0.00,,,0.00,Wunderground v.1.15,2013-03-18 12:46:00,
2013-03-18 05:52:00,44.4,43.9,30.02,WSW,254,0.0,0.0,98,0.00,,,0.00,Wunderground v.1.15,2013-03-18 12:52:00,
2013-03-18 05:58:00,44.6,43.8,30.03,WSW,253,0.0,0.0,97,0.00,,,0.00,Wunderground v.1.15,2013-03-18 12:58:00,
2013-03-18 06:04:00,44.1,43.3,30.04,WSW,253,0.0,0.0,97,0.00,,,0.00,Wunderground v.1.15,2013-03-18 13:04:00,
2013-03-18 06:10:00,44.9,44.4,30.04,SE,132,0.0,0.0,98,0.00,,,0.00,Wunderground v.1.15,2013-03-18 13:10:00,
2013-03-18 06:16:00,45.1,44.6,30.04,SW,224,0.0,0.0,98,0.00,,,0.00,Wunderground v.1.15,2013-03-18 13:16:00,
2013-03-18 06:22:00,44.9,44.1,30.04,SW,223,0.0,0.0,97,0.00,,,0.00,Wunderground v.1.15,2013-03-18 13:22:00,
2013-03-18 06:28:00,44.8,44.0,30.04,SW,224,0.0,0.0,97,0.00,,,0.00,Wunderground v.1.15,2013-03-18 13:28:00,
2013-03-18 06:34:00,44.4,43.6,30.04,SW,224,0.0,0.0,97,0.00,,,0.00,Wunderground v.1.15,2013-03-18 13:34:00,
2013-03-18 06:40:00,44.2,43.4,30.04,SW,224,0.0,0.0,97,0.00,,,0.00,Wunderground v.1.15,2013-03-18 13:40:00,
2013-03-18 06:46:00,44.6,44.1,30.05,SW,224,0.0,0.0,98,0.00,,,0.00,Wunderground v.1.15,2013-03-18 13:46:00,
2013-03-18 06:52:00,45.0,44.5,30.05,SW,223,0.0,0.0,98,0.00,,,0.00,Wunderground v.1.15,2013-03-18 13:52:00,
2013-03-18 06:58:00,45.4,44.9,30.05,WSW,240,0.0,0.0,98,0.00,,,0.00,Wunderground v.1.15,2013-03-18 13:58:00,
2013-03-18 07:04:00,44.8,44.0,30.06,South,186,0.0,0.0,97,0.00,,,0.00,Wunderground v.1.15,2013-03-18 14:04:00,
2013-03-18 07:10:00,44.3,43.5,30.06,South,186,0.0,0.0,97,0.00,,,0.00,Wunderground v.1.15,2013-03-18 14:10:00,
2013-03-18 07:16:00,44.7,44.2,30.06,SE,130,0.0,0.0,98,0.00,,,0.00,Wunderground v.1.15,2013-03-18 14:16:00,
2013-03-18 07:22:00,45.1,44.6,30.06,SE,130,0.0,0.0,98,0.00,,,0.00,Wunderground v.1.15,2013-03-18 14:22:00,
2013-03-18 07:28:00,45.6,45.1,30.06,SE,130,0.0,0.0,98,0.00,,,0.00,Wunderground v.1.15,2013-03-18 14:28:00,
2013-03-18 07:34:00,46.0,45.5,30.06,SE,129,0.0,0.0,98,0.00,,,0.00,Wunderground v.1.15,2013-03-18 14:34:00,
2013-03-18 07:40:00,46.5,46.0,30.06,SE,130,0.0,0.0,98,0.00,,,0.00,Wunderground v.1.15,2013-03-18 14:40:00,
2013-03-18 07:46:00,46.7,46.2,30.07,SE,129,0.0,0.0,98,0.00,,,0.00,Wunderground v.1.15,2013-03-18 14:46:00,
2013-03-18 07:52:00,46.6,45.8,30.07,SE,130,0.0,0.0,97,0.00,,,0.00,Wunderground v.1.15,2013-03-18 14:52:00,
2013-03-18 07:58:00,46.7,45.9,30.07,SE,130,0.0,0.0,97,0.00,,,0.00,Wunderground v.1.15,2013-03-18 14:58:00,
2013-03-18 08:04:00,47.2,46.7,30.07,WSW,257,0.0,0.0,98,0.00,,,0.00,Wunderground v.1.15,2013-03-18 15:04:00,
2013-03-18 08:10:00,47.4,46.9,30.08,WSW,257,0.0,0.0,98,0.00,,,0.00,Wunderground v.1.15,2013-03-18 15:10:00,
2013-03-18 08:16:00,47.5,46.7,30.08,WSW,257,0.0,0.0,97,0.00,,,0.00,Wunderground v.1.15,2013-03-18 15:16:00,
2013-03-18 08:22:00,47.9,47.4,30.08,WSW,257,0.0,0.0,98,0.00,,,0.00,Wunderground v.1.15,2013-03-18 15:22:00,
2013-03-18 08:28:00,48.3,47.8,30.07,WSW,257,0.0,0.0,98,0.00,,,0.00,Wunderground v.1.15,2013-03-18 15:28:00,
2013-03-18 08:34:00,48.7,48.2,30.08,WSW,257,0.0,0.0,98,0.00,,,0.00,Wunderground v.1.15,2013-03-18 15:34:00,
2013-03-18 08:40:00,49.0,48.5,30.07,WSW,257,0.0,0.0,98,0.00,,,0.00,Wunderground v.1.15,2013-03-18 15:40:00,
2013-03-18 08:46:00,49.3,48.8,30.07,West,262,0.0,0.0,98,0.00,,,0.00,Wunderground v.1.15,2013-03-18 15:46:00,
2013-03-18 08:52:00,49.7,49.2,30.08,North,351,0.0,0.0,98,0.00,,,0.00,Wunderground v.1.15,2013-03-18 15:52:00,
2013-03-18 08:58:00,50.0,49.5,30.08,North,352,0.0,0.0,98,0.00,,,0.00,Wunderground v.1.15,2013-03-18 15:58:00,
2013-03-18 09:04:00,50.3,49.8,30.08,SE,127,0.0,0.0,98,0.00,,,0.00,Wunderground v.1.15,2013-03-18 16:04:00,
2013-03-18 09:10:00,50.6,50.1,30.08,ENE,61,0.0,1.0,98,0.00,,,0.00,Wunderground v.1.15,2013-03-18 16:10:00,
2013-03-18 09:16:00,50.8,50.0,30.08,ENE,68,0.0,1.0,97,0.00,,,0.00,Wunderground v.1.15,2013-03-18 16:16:00,
2013-03-18 09:22:00,50.9,50.1,30.08,North,4,0.0,0.0,97,0.00,,,0.00,Wunderground v.1.15,2013-03-18 16:22:00,
2013-03-18 09:28:00,51.2,50.4,30.09,WSW,248,0.0,0.0,97,0.00,,,0.00,Wunderground v.1.15,2013-03-18 16:28:00,
2013-03-18 09:34:00,51.4,50.6,30.10,WSW,238,0.0,0.0,97,0.00,,,0.00,Wunderground v.1.15,2013-03-18 16:34:00,
2013-03-18 09:40:00,51.6,50.5,30.10,West,266,0.0,2.0,96,0.00,,,0.00,Wunderground v.1.15,2013-03-18 16:40:00,
2013-03-18 09:46:00,51.9,50.8,30.11,West,264,0.0,2.0,96,0.00,,,0.00,Wunderground v.1.15,2013-03-18 16:46:00,